Time,TemperatureF,DewpointF,PressureIn,WindDirection,WindDirectionDegrees,WindSpeedMPH,WindSpeedGustMPH,Humidity,HourlyPrecipIn,Conditions,Clouds,dailyrainin,SoftwareType,DateUTC
2013-01-21 00:00:00,9.0,-99.9,-100.00,SSW,210,32.0,128.0,-999,0.00,,,0.00,,2013-01-21 06:00:00,
2013-01-21 00:33:00,9.0,-99.9,-100.00,SSW,210,32.0,128.0,-999,0.00,,,0.00,,2013-01-21 06:33:00,
2013-01-21 00:43:00,9.0,-99.9,-100.00,SSW,210,32.0,128.0,-999,0.00,,,0.00,,2013-01-21 06:43:00,
2013-01-21 00:53:00,9.0,-99.9,-100.00,SSW,210,32.0,128.0,-999,0.00,,,0.00,,2013-01-21 06:53:00,
2013-01-21 01:00:00,8.0,-99.9,-100.00,South,188,65.0,127.0,-999,0.00,,,0.00,,2013-01-21 07:00:00,
2013-01-21 01:33:00,8.0,-99.9,-100.00,South,188,65.0,127.0,-999,0.00,,,0.00,,2013-01-21 07:33:00,
2013-01-21 01:43:00,8.0,-99.9,-100.00,South,188,65.0,127.0,-999,0.00,,,0.00,,2013-01-21 07:43:00,
2013-01-21 01:53:00,8.0,-99.9,-100.00,South,188,65.0,127.0,-999,0.00,,,0.00,,2013-01-21 07:53:00,
2013-01-21 02:00:00,8.0,-99.9,-100.00,South,186,63.0,126.0,-999,0.00,,,0.00,,2013-01-21 08:00:00,
2013-01-21 02:43:00,8.0,-99.9,-100.00,South,186,63.0,126.0,-999,0.00,,,0.00,,2013-01-21 08:43:00,
2013-01-21 02:53:00,8.0,-99.9,-100.00,South,186,63.0,126.0,-999,0.00,,,0.00,,2013-01-21 08:53:00,
2013-01-21 03:00:00,7.0,-99.9,-100.00,South,190,51.0,130.0,-999,0.00,,,0.00,,2013-01-21 09:00:00,
2013-01-21 03:43:00,7.0,-99.9,-100.00,South,190,51.0,130.0,-999,0.00,,,0.00,,2013-01-21 09:43:00,
2013-01-21 03:53:00,7.0,-99.9,-100.00,South,190,51.0,130.0,-999,0.00,,,0.00,,2013-01-21 09:53:00,
2013-01-21 04:00:00,6.0,-99.9,-100.00,South,183,74.0,126.0,-999,0.00,,,0.00,,2013-01-21 10:00:00,
2013-01-21 04:43:00,6.0,-99.9,-100.00,South,183,74.0,126.0,-999,0.00,,,0.00,,2013-01-21 10:43:00,
2013-01-21 04:53:00,6.0,-99.9,-100.00,South,183,74.0,126.0,-999,0.00,,,0.00,,2013-01-21 10:53:00,
2013-01-21 05:00:00,5.0,-99.9,-100.00,South,182,74.0,124.0,-999,0.00,,,0.00,,2013-01-21 11:00:00,
2013-01-21 05:33:00,5.0,-99.9,-100.00,South,182,74.0,124.0,-999,0.00,,,0.00,,2013-01-21 11:33:00,
2013-01-21 05:43:00,5.0,-99.9,-100.00,South,182,74.0,124.0,-999,0.00,,,0.00,,2013-01-21 11:43:00,
2013-01-21 05:53:00,5.0,-99.9,-100.00,South,182,74.0,124.0,-999,0.00,,,0.00,,2013-01-21 11:53:00,
2013-01-21 06:00:00,4.0,-99.9,-100.00,South,182,70.0,74.0,-999,0.00,,,0.00,,2013-01-21 12:00:00,
2013-01-21 06:43:00,4.0,-99.9,-100.00,South,182,70.0,74.0,-999,0.00,,,0.00,,2013-01-21 12:43:00,
2013-01-21 06:53:00,4.0,-99.9,-100.00,South,182,70.0,74.0,-999,0.00,,,0.00,,2013-01-21 12:53:00,
2013-01-21 07:00:00,2.0,-99.9,-100.00,South,181,73.0,76.0,-999,0.00,,,0.00,,2013-01-21 13:00:00,
2013-01-21 07:43:00,2.0,-99.9,-100.00,South,181,73.0,76.0,-999,0.00,,,0.00,,2013-01-21 13:43:00,
2013-01-21 07:54:00,2.0,-99.9,-100.00,South,181,73.0,76.0,-999,0.00,,,0.00,,2013-01-21 13:54:00,
2013-01-21 09:00:00,-1.0,-99.9,-100.00,South,182,75.0,79.0,-999,0.00,,,0.00,,2013-01-21 15:00:00,
2013-01-21 09:43:00,-1.0,-99.9,-100.00,South,182,75.0,79.0,-999,0.00,,,0.00,,2013-01-21 15:43:00,
2013-01-21 09:54:00,-1.0,-99.9,-100.00,South,182,75.0,79.0,-999,0.00,,,0.00,,2013-01-21 15:54:00,
2013-01-21 11:00:00,2.0,-99.9,-100.00,WNW,298,6.0,15.0,-999,0.00,,,0.00,,2013-01-21 17:00:00,
2013-01-21 11:43:00,2.0,-99.9,-100.00,WNW,298,6.0,15.0,-999,0.00,,,0.00,,2013-01-21 17:43:00,
2013-01-21 11:53:00,2.0,-99.9,-100.00,WNW,298,6.0,15.0,-999,0.00,,,0.00,,2013-01-21 17:53:00,
2013-01-21 12:00:00,3.0,-99.9,-100.00,WNW,294,6.0,13.0,-999,0.00,,,0.00,,2013-01-21 18:00:00,
2013-01-21 12:33:00,3.0,-99.9,-100.00,WNW,294,6.0,13.0,-999,0.00,,,0.00,,2013-01-21 18:33:00,
2013-01-21 12:43:00,3.0,-99.9,-100.00,WNW,294,6.0,13.0,-999,0.00,,,0.00,,2013-01-21 18:43:00,
2013-01-21 12:53:00,3.0,-99.9,-100.00,WNW,294,6.0,13.0,-999,0.00,,,0.00,,2013-01-21 18:53:00,
2013-01-21 13:00:00,5.0,-99.9,-100.00,WNW,297,6.0,15.0,-999,0.00,,,0.00,,2013-01-21 19:00:00,
2013-01-21 13:43:00,5.0,-99.9,-100.00,WNW,297,6.0,15.0,-999,0.00,,,0.00,,2013-01-21 19:43:00,
2013-01-21 13:53:00,5.0,-99.9,-100.00,WNW,297,6.0,15.0,-999,0.00,,,0.00,,2013-01-21 19:53:00,
2013-01-21 15:00:00,9.0,-99.9,-100.00,WNW,298,7.0,14.0,-999,0.00,,,0.00,,2013-01-21 21:00:00,
2013-01-21 15:33:00,9.0,-99.9,-100.00,WNW,298,7.0,14.0,-999,0.00,,,0.00,,2013-01-21 21:33:00,
2013-01-21 15:44:00,9.0,-99.9,-100.00,WNW,298,7.0,14.0,-999,0.00,,,0.00,,2013-01-21 21:44:00,
2013-01-21 15:54:00,9.0,-99.9,-100.00,WNW,298,7.0,14.0,-999,0.00,,,0.00,,2013-01-21 21:54:00,
2013-01-21 16:00:00,9.0,-99.9,-100.00,WNW,293,7.0,15.0,-999,0.00,,,0.00,,2013-01-21 22:00:00,
2013-01-21 16:33:00,9.0,-99.9,-100.00,WNW,293,7.0,15.0,-999,0.00,,,0.00,,2013-01-21 22:33:00,
2013-01-21 16:43:00,9.0,-99.9,-100.00,WNW,293,7.0,15.0,-999,0.00,,,0.00,,2013-01-21 22:43:00,
2013-01-21 16:53:00,9.0,-99.9,-100.00,WNW,293,7.0,15.0,-999,0.00,,,0.00,,2013-01-21 22:53:00,
2013-01-21 17:00:00,8.0,-99.9,-100.00,WNW,290,5.0,11.0,-999,0.00,,,0.00,,2013-01-21 23:00:00,
2013-01-21 17:33:00,8.0,-99.9,-100.00,WNW,290,5.0,11.0,-999,0.00,,,0.00,,2013-01-21 23:33:00,
2013-01-21 17:43:00,8.0,-99.9,-100.00,WNW,290,5.0,11.0,-999,0.00,,,0.00,,2013-01-21 23:43:00,
2013-01-21 17:53:00,8.0,-99.9,-100.00,WNW,290,5.0,11.0,-999,0.00,,,0.00,,2013-01-21 23:53:00,
2013-01-21 18:00:00,7.0,-99.9,-100.00,SSW,198,13.0,126.0,-999,0.00,,,0.00,,2013-01-22 00:00:00,
2013-01-21 18:33:00,7.0,-99.9,-100.00,SSW,198,13.0,126.0,-999,0.00,,,0.00,,2013-01-22 00:33:00,
2013-01-21 18:43:00,7.0,-99.9,-100.00,SSW,198,13.0,126.0,-999,0.00,,,0.00,,2013-01-22 00:43:00,
2013-01-21 18:53:00,7.0,-99.9,-100.00,SSW,198,13.0,126.0,-999,0.00,,,0.00,,2013-01-22 00:53:00,
2013-01-21 20:00:00,6.0,-99.9,-100.00,South,181,70.0,73.0,-999,0.00,,,0.00,,2013-01-22 02:00:00,
2013-01-21 20:43:00,6.0,-99.9,-100.00,South,181,70.0,73.0,-999,0.00,,,0.00,,2013-01-22 02:43:00,
2013-01-21 20:53:00,6.0,-99.9,-100.00,South,181,70.0,73.0,-999,0.00,,,0.00,,2013-01-22 02:53:00,
2013-01-21 21:00:00,5.0,-99.9,-100.00,South,181,73.0,75.0,-999,0.00,,,0.00,,2013-01-22 03:00:00,
2013-01-21 21:43:00,5.0,-99.9,-100.00,South,181,73.0,75.0,-999,0.00,,,0.00,,2013-01-22 03:43:00,
2013-01-21 21:53:00,5.0,-99.9,-100.00,South,181,73.0,75.0,-999,0.00,,,0.00,,2013-01-22 03:53:00,
2013-01-21 22:00:00,5.0,-99.9,-100.00,South,181,72.0,74.0,-999,0.00,,,0.00,,2013-01-22 04:00:00,
2013-01-21 22:43:00,5.0,-99.9,-100.00,South,181,72.0,74.0,-999,0.00,,,0.00,,2013-01-22 04:43:00,
2013-01-21 22:53:00,5.0,-99.9,-100.00,South,181,72.0,74.0,-999,0.00,,,0.00,,2013-01-22 04:53:00,
2013-01-21 23:00:00,5.0,-99.9,-100.00,South,182,76.0,125.0,-999,0.00,,,0.00,,2013-01-22 05:00:00,
2013-01-21 23:43:00,5.0,-99.9,-100.00,South,182,76.0,125.0,-999,0.00,,,0.00,,2013-01-22 05:43:00,
2013-01-21 23:53:00,5.0,-99.9,-100.00,South,182,76.0,125.0,-999,0.00,,,0.00,,2013-01-22 05:53:00,